Time,TemperatureF,DewpointF,PressureIn,WindDirection,WindDirectionDegrees,WindSpeedMPH,WindSpeedGustMPH,Humidity,HourlyPrecipIn,Conditions,Clouds,dailyrainin,SoftwareType,DateUTC
2013-03-28 00:00:00,36.7,29.5,30.17,WSW,253,4.0,4.0,75,0.00,,,0.00,Wunderground v.1.15,2013-03-28 04:00:00,
2013-03-28 00:05:00,36.8,29.6,30.17,West,263,3.0,4.0,75,0.00,,,0.00,Wunderground v.1.15,2013-03-28 04:05:00,
2013-03-28 00:10:00,36.8,29.3,30.17,SW,232,3.0,3.0,74,0.00,,,0.00,Wunderground v.1.15,2013-03-28 04:10:00,
2013-03-28 00:15:00,36.8,29.3,30.17,WSW,245,3.0,7.0,74,0.00,,,0.00,Wunderground v.1.15,2013-03-28 04:15:00,
2013-03-28 00:20:00,36.9,29.4,30.17,SW,214,3.0,4.0,74,0.00,,,0.00,Wunderground v.1.15,2013-03-28 04:20:00,
2013-03-28 00:25:00,36.9,29.1,30.17,WNW,291,3.0,4.0,73,0.00,,,0.00,Wunderground v.1.15,2013-03-28 04:25:00,
2013-03-28 00:35:00,36.9,29.1,30.17,WSW,242,2.0,4.0,73,0.00,,,0.00,Wunderground v.1.15,2013-03-28 04:35:00,
2013-03-28 00:40:00,36.9,28.7,30.17,West,279,3.0,3.0,72,0.00,,,0.00,Wunderground v.1.15,2013-03-28 04:40:00,
2013-03-28 00:45:00,36.9,28.7,30.17,WNW,297,3.0,3.0,72,0.00,,,0.00,Wunderground v.1.15,2013-03-28 04:45:00,
2013-03-28 00:50:00,37.0,28.8,30.17,WNW,300,3.0,3.0,72,0.00,,,0.00,Wunderground v.1.15,2013-03-28 04:50:00,
2013-03-28 00:55:00,37.0,28.5,30.17,WSW,257,4.0,4.0,71,0.00,,,0.00,Wunderground v.1.15,2013-03-28 04:55:00,
2013-03-28 01:00:00,37.0,28.5,30.17,SSE,156,4.0,4.0,71,0.00,,,0.00,Wunderground v.1.15,2013-03-28 05:00:00,
2013-03-28 01:05:00,37.0,28.5,30.17,WNW,295,2.0,4.0,71,0.00,,,0.00,Wunderground v.1.15,2013-03-28 05:05:00,
2013-03-28 01:15:00,37.0,28.5,30.17,SW,233,3.0,4.0,71,0.00,,,0.00,Wunderground v.1.15,2013-03-28 05:15:00,
2013-03-28 01:25:00,37.0,28.5,30.17,SSE,151,3.0,3.0,71,0.00,,,0.00,Wunderground v.1.15,2013-03-28 05:25:00,
2013-03-28 01:30:00,37.0,28.5,30.17,WNW,290,2.0,5.0,71,0.00,,,0.00,Wunderground v.1.15,2013-03-28 05:30:00,
2013-03-28 01:35:00,36.9,28.4,30.17,WSW,248,2.0,5.0,71,0.00,,,0.00,Wunderground v.1.15,2013-03-28 05:35:00,
2013-03-28 01:40:00,36.9,28.4,30.17,West,264,3.0,4.0,71,0.00,,,0.00,Wunderground v.1.15,2013-03-28 05:40:00,
2013-03-28 01:45:00,36.9,28.4,30.17,West,274,3.0,4.0,71,0.00,,,0.00,Wunderground v.1.15,2013-03-28 05:45:00,
2013-03-28 01:50:00,36.9,28.4,30.17,WSW,256,3.0,3.0,71,0.00,,,0.00,Wunderground v.1.15,2013-03-28 05:50:00,
2013-03-28 02:00:00,36.9,28.4,30.17,WNW,298,3.0,3.0,71,0.00,,,0.00,Wunderground v.1.15,2013-03-28 06:00:00,
2013-03-28 02:09:00,36.8,28.3,30.17,West,266,3.0,3.0,71,0.00,,,0.00,Wunderground v.1.15,2013-03-28 06:09:00,
2013-03-28 02:15:00,36.8,27.9,30.17,WNW,290,3.0,3.0,70,0.00,,,0.00,Wunderground v.1.15,2013-03-28 06:15:00,
2013-03-28 02:20:00,36.7,28.2,30.17,West,266,3.0,3.0,71,0.00,,,0.00,Wunderground v.1.15,2013-03-28 06:20:00,
2013-03-28 02:25:00,36.7,28.2,30.17,SW,220,2.0,4.0,71,0.00,,,0.00,Wunderground v.1.15,2013-03-28 06:25:00,
2013-03-28 02:35:00,36.5,28.0,30.17,West,263,2.0,2.0,71,0.00,,,0.00,Wunderground v.1.15,2013-03-28 06:35:00,
2013-03-28 02:40:00,36.5,28.0,30.17,NNW,339,3.0,3.0,71,0.00,,,0.00,Wunderground v.1.15,2013-03-28 06:40:00,
2013-03-28 02:45:00,36.4,27.9,30.17,NNE,26,2.0,3.0,71,0.00,,,0.00,Wunderground v.1.15,2013-03-28 06:45:00,
2013-03-28 02:50:00,36.3,27.8,30.17,WNW,283,2.0,3.0,71,0.00,,,0.00,Wunderground v.1.15,2013-03-28 06:50:00,
2013-03-28 03:00:00,36.2,27.7,30.17,ESE,118,2.0,2.0,71,0.00,,,0.00,Wunderground v.1.15,2013-03-28 07:00:00,
2013-03-28 03:10:00,36.0,27.5,30.17,SSW,198,2.0,2.0,71,0.00,,,0.00,Wunderground v.1.15,2013-03-28 07:10:00,
2013-03-28 03:15:00,36.0,27.8,30.16,SSE,153,2.0,2.0,72,0.00,,,0.00,Wunderground v.1.15,2013-03-28 07:15:00,
2013-03-28 03:20:00,35.9,27.7,30.17,West,280,2.0,2.0,72,0.00,,,0.00,Wunderground v.1.15,2013-03-28 07:20:00,
2013-03-28 03:25:00,35.9,27.4,30.16,West,274,2.0,2.0,71,0.00,,,0.00,Wunderground v.1.15,2013-03-28 07:25:00,
2013-03-28 03:35:00,35.8,27.7,30.17,West,271,2.0,4.0,72,0.00,,,0.00,Wunderground v.1.15,2013-03-28 07:35:00,
2013-03-28 03:40:00,35.8,27.3,30.16,WNW,293,2.0,2.0,71,0.00,,,0.00,Wunderground v.1.15,2013-03-28 07:40:00,
2013-03-28 03:45:00,35.7,27.6,30.16,WSW,257,3.0,3.0,72,0.00,,,0.00,Wunderground v.1.15,2013-03-28 07:45:00,
2013-03-28 03:50:00,35.6,27.5,30.16,West,281,3.0,3.0,72,0.00,,,0.00,Wunderground v.1.15,2013-03-28 07:50:00,
2013-03-28 03:55:00,35.6,27.5,30.16,NNW,348,2.0,3.0,72,0.00,,,0.00,Wunderground v.1.15,2013-03-28 07:55:00,
2013-03-28 04:00:00,35.6,27.5,30.16,South,186,2.0,2.0,72,0.00,,,0.00,Wunderground v.1.15,2013-03-28 08:00:00,
2013-03-28 04:10:00,35.4,27.3,30.16,NW,319,1.0,1.0,72,0.00,,,0.00,Wunderground v.1.15,2013-03-28 08:10:00,
2013-03-28 04:15:00,35.3,27.2,30.16,SW,236,1.0,3.0,72,0.00,,,0.00,Wunderground v.1.15,2013-03-28 08:15:00,
2013-03-28 04:20:00,35.3,27.2,30.16,SW,221,2.0,2.0,72,0.00,,,0.00,Wunderground v.1.15,2013-03-28 08:20:00,
2013-03-28 04:30:00,35.1,27.3,30.17,NNE,32,1.0,3.0,73,0.00,,,0.00,Wunderground v.1.15,2013-03-28 08:30:00,
2013-03-28 04:35:00,35.1,27.3,30.17,West,270,1.0,3.0,73,0.00,,,0.00,Wunderground v.1.15,2013-03-28 08:35:00,
2013-03-28 04:40:00,35.0,27.2,30.17,WNW,287,2.0,3.0,73,0.00,,,0.00,Wunderground v.1.15,2013-03-28 08:40:00,
2013-03-28 04:50:00,34.9,27.1,30.17,South,174,1.0,1.0,73,0.00,,,0.00,Wunderground v.1.15,2013-03-28 08:50:00,
2013-03-28 04:55:00,34.9,27.1,30.17,NW,312,2.0,2.0,73,0.00,,,0.00,Wunderground v.1.15,2013-03-28 08:55:00,
2013-03-28 05:00:00,34.9,27.1,30.17,NNE,19,2.0,2.0,73,0.00,,,0.00,Wunderground v.1.15,2013-03-28 09:00:00,
2013-03-28 05:09:00,34.8,27.0,30.17,WNW,293,2.0,2.0,73,0.00,,,0.00,Wunderground v.1.15,2013-03-28 09:09:00,
2013-03-28 05:15:00,34.7,27.3,30.17,WSW,248,2.0,2.0,74,0.00,,,0.00,Wunderground v.1.15,2013-03-28 09:15:00,
2013-03-28 05:20:00,34.7,27.3,30.17,West,261,2.0,2.0,74,0.00,,,0.00,Wunderground v.1.15,2013-03-28 09:20:00,
2013-03-28 05:25:00,34.6,27.2,30.17,WNW,291,2.0,2.0,74,0.00,,,0.00,Wunderground v.1.15,2013-03-28 09:25:00,
2013-03-28 05:30:00,34.5,27.1,30.17,SW,229,2.0,4.0,74,0.00,,,0.00,Wunderground v.1.15,2013-03-28 09:30:00,
2013-03-28 05:35:00,34.5,27.1,30.17,WSW,255,2.0,4.0,74,0.00,,,0.00,Wunderground v.1.15,2013-03-28 09:35:00,
2013-03-28 05:40:00,34.5,27.1,30.17,SW,219,2.0,2.0,74,0.00,,,0.00,Wunderground v.1.15,2013-03-28 09:40:00,
2013-03-28 05:45:00,34.4,27.0,30.17,WNW,285,1.0,4.0,74,0.00,,,0.00,Wunderground v.1.15,2013-03-28 09:45:00,
2013-03-28 05:55:00,34.3,27.2,30.18,WNW,294,1.0,3.0,75,0.00,,,0.00,Wunderground v.1.15,2013-03-28 09:55:00,
2013-03-28 06:00:00,34.3,27.2,30.18,WNW,297,1.0,2.0,75,0.00,,,0.00,Wunderground v.1.15,2013-03-28 10:00:00,
2013-03-28 06:10:00,34.2,27.1,30.18,WNW,302,2.0,2.0,75,0.00,,,0.00,Wunderground v.1.15,2013-03-28 10:10:00,
2013-03-28 06:15:00,34.2,27.1,30.18,SSW,207,2.0,2.0,75,0.00,,,0.00,Wunderground v.1.15,2013-03-28 10:15:00,
2013-03-28 06:20:00,34.2,27.1,30.18,WSW,241,1.0,2.0,75,0.00,,,0.00,Wunderground v.1.15,2013-03-28 10:20:00,
2013-03-28 06:30:00,34.1,27.0,30.18,SW,233,1.0,2.0,75,0.00,,,0.00,Wunderground v.1.15,2013-03-28 10:30:00,
2013-03-28 06:35:00,34.0,26.9,30.18,South,183,1.0,2.0,75,0.00,,,0.00,Wunderground v.1.15,2013-03-28 10:35:00,
2013-03-28 06:40:00,34.0,26.9,30.18,WNW,294,2.0,2.0,75,0.00,,,0.00,Wunderground v.1.15,2013-03-28 10:40:00,
2013-03-28 06:45:00,33.9,26.8,30.19,WSW,239,2.0,2.0,75,0.00,,,0.00,Wunderground v.1.15,2013-03-28 10:45:00,
2013-03-28 06:55:00,33.9,26.8,30.19,West,269,1.0,2.0,75,0.00,,,0.00,Wunderground v.1.15,2013-03-28 10:55:00,
2013-03-28 07:00:00,33.9,26.8,30.19,West,279,2.0,3.0,75,0.00,,,0.00,Wunderground v.1.15,2013-03-28 11:00:00,
2013-03-28 07:10:00,33.8,26.7,30.19,WSW,243,2.0,2.0,75,0.00,,,0.00,Wunderground v.1.15,2013-03-28 11:10:00,
2013-03-28 07:15:00,33.8,26.7,30.19,SW,218,1.0,2.0,75,0.00,,,0.00,Wunderground v.1.15,2013-03-28 11:15:00,
2013-03-28 07:20:00,33.7,26.6,30.20,SSW,210,1.0,1.0,75,0.00,,,0.00,Wunderground v.1.15,2013-03-28 11:20:00,
2013-03-28 07:30:00,33.5,26.4,30.20,SSW,207,1.0,2.0,75,0.00,,,0.00,Wunderground v.1.15,2013-03-28 11:30:00,
2013-03-28 07:35:00,33.5,26.7,30.20,SW,231,1.0,2.0,76,0.00,,,0.00,Wunderground v.1.15,2013-03-28 11:35:00,
2013-03-28 07:40:00,33.5,26.7,30.20,SW,217,2.0,2.0,76,0.00,,,0.00,Wunderground v.1.15,2013-03-28 11:40:00,
2013-03-28 07:45:00,33.5,26.7,30.21,West,266,2.0,2.0,76,0.00,,,0.00,Wunderground v.1.15,2013-03-28 11:45:00,
2013-03-28 07:50:00,33.3,26.5,30.21,NNW,328,2.0,2.0,76,0.00,,,0.00,Wunderground v.1.15,2013-03-28 11:50:00,
2013-03-28 07:55:00,33.2,26.5,30.21,South,179,1.0,2.0,76,0.00,,,0.00,Wunderground v.1.15,2013-03-28 11:55:00,
2013-03-28 08:00:00,33.1,26.4,30.21,SW,230,1.0,1.0,76,0.00,,,0.00,Wunderground v.1.15,2013-03-28 12:00:00,
2013-03-28 08:10:00,33.1,26.7,30.21,SW,225,1.0,2.0,77,0.00,,,0.00,Wunderground v.1.15,2013-03-28 12:10:00,
2013-03-28 08:15:00,33.2,26.8,30.21,West,269,2.0,2.0,77,0.00,,,0.00,Wunderground v.1.15,2013-03-28 12:15:00,
2013-03-28 08:20:00,33.3,26.9,30.21,SSW,201,2.0,3.0,77,0.00,,,0.00,Wunderground v.1.15,2013-03-28 12:20:00,
2013-03-28 08:25:00,33.4,27.0,30.22,West,270,2.0,3.0,77,0.00,,,0.00,Wunderground v.1.15,2013-03-28 12:25:00,
2013-03-28 08:30:00,33.5,26.7,30.22,SW,233,1.0,1.0,76,0.00,,,0.00,Wunderground v.1.15,2013-03-28 12:30:00,
2013-03-28 08:40:00,33.7,26.9,30.22,WNW,282,2.0,3.0,76,0.00,,,0.00,Wunderground v.1.15,2013-03-28 12:40:00,
2013-03-28 08:45:00,33.7,26.9,30.22,WSW,249,3.0,3.0,76,0.00,,,0.00,Wunderground v.1.15,2013-03-28 12:45:00,
2013-03-28 08:50:00,33.7,26.3,30.22,SW,225,4.0,4.0,74,0.00,,,0.00,Wunderground v.1.15,2013-03-28 12:50:00,
2013-03-28 08:55:00,33.7,26.6,30.22,WSW,245,4.0,6.0,75,0.00,,,0.00,Wunderground v.1.15,2013-03-28 12:55:00,
2013-03-28 11:00:00,37.9,28.3,30.24,NE,54,3.0,9.0,68,0.00,,,0.00,Wunderground v.1.15,2013-03-28 15:00:00,
2013-03-28 11:10:00,38.3,29.0,30.24,North,353,2.0,2.0,69,0.00,,,0.00,Wunderground v.1.15,2013-03-28 15:10:00,
2013-03-28 11:15:00,38.7,29.4,30.24,SSW,193,2.0,2.0,69,0.00,,,0.00,Wunderground v.1.15,2013-03-28 15:15:00,
2013-03-28 11:20:00,38.6,28.9,30.25,WSW,249,3.0,3.0,68,0.00,,,0.00,Wunderground v.1.15,2013-03-28 15:20:00,
2013-03-28 11:25:00,38.6,28.6,30.25,WSW,246,4.0,4.0,67,0.00,,,0.00,Wunderground v.1.15,2013-03-28 15:25:00,
2013-03-28 11:30:00,38.6,28.9,30.25,WSW,243,3.0,3.0,68,0.00,,,0.00,Wunderground v.1.15,2013-03-28 15:30:00,
2013-03-28 11:35:00,38.7,28.7,30.25,WSW,241,3.0,3.0,67,0.00,,,0.00,Wunderground v.1.15,2013-03-28 15:35:00,
2013-03-28 11:40:00,38.7,29.8,30.25,WNW,293,4.0,5.0,70,0.00,,,0.00,Wunderground v.1.15,2013-03-28 15:40:00,
2013-03-28 11:45:00,38.9,29.2,30.25,SSW,197,4.0,5.0,68,0.00,,,0.00,Wunderground v.1.15,2013-03-28 15:45:00,
2013-03-28 11:50:00,39.2,29.2,30.25,West,259,4.0,5.0,67,0.00,,,0.00,Wunderground v.1.15,2013-03-28 15:50:00,
2013-03-28 11:55:00,39.5,29.1,30.25,WNW,293,3.0,5.0,66,0.00,,,0.00,Wunderground v.1.15,2013-03-28 15:55:00,
2013-03-28 12:05:00,39.9,29.5,30.25,SW,218,3.0,7.0,66,0.00,,,0.00,Wunderground v.1.15,2013-03-28 16:05:00,
2013-03-28 12:10:00,40.0,29.6,30.25,SSW,196,4.0,4.0,66,0.00,,,0.00,Wunderground v.1.15,2013-03-28 16:10:00,
2013-03-28 12:20:00,40.2,29.4,30.25,NW,314,4.0,4.0,65,0.00,,,0.00,Wunderground v.1.15,2013-03-28 16:20:00,
2013-03-28 12:25:00,40.3,29.8,30.25,WSW,257,4.0,4.0,66,0.00,,,0.00,Wunderground v.1.15,2013-03-28 16:25:00,
2013-03-28 12:30:00,40.5,30.0,30.25,West,281,4.0,7.0,66,0.00,,,0.00,Wunderground v.1.15,2013-03-28 16:30:00,
2013-03-28 12:35:00,40.6,30.5,30.25,NW,312,4.0,7.0,67,0.00,,,0.00,Wunderground v.1.15,2013-03-28 16:35:00,
2013-03-28 12:40:00,40.8,29.9,30.25,West,272,3.0,6.0,65,0.00,,,0.00,Wunderground v.1.15,2013-03-28 16:40:00,
2013-03-28 12:50:00,41.1,30.6,30.25,West,274,5.0,6.0,66,0.00,,,0.00,Wunderground v.1.15,2013-03-28 16:50:00,
2013-03-28 12:55:00,41.1,29.8,30.25,WSW,252,5.0,6.0,64,0.00,,,0.00,Wunderground v.1.15,2013-03-28 16:55:00,
2013-03-28 13:00:00,41.0,30.1,30.25,West,262,4.0,4.0,65,0.00,,,0.00,Wunderground v.1.15,2013-03-28 17:00:00,
2013-03-28 13:10:00,41.2,29.9,30.24,West,274,5.0,5.0,64,0.00,,,0.00,Wunderground v.1.15,2013-03-28 17:10:00,
2013-03-28 13:15:00,41.3,30.4,30.24,West,270,5.0,5.0,65,0.00,,,0.00,Wunderground v.1.15,2013-03-28 17:15:00,
2013-03-28 13:20:00,41.2,29.9,30.24,NW,316,4.0,4.0,64,0.00,,,0.00,Wunderground v.1.15,2013-03-28 17:20:00,
2013-03-28 13:30:00,41.9,30.6,30.25,WSW,256,3.0,3.0,64,0.00,,,0.00,Wunderground v.1.15,2013-03-28 17:30:00,
2013-03-28 13:35:00,41.9,30.2,30.25,NW,314,4.0,4.0,63,0.00,,,0.00,Wunderground v.1.15,2013-03-28 17:35:00,
2013-03-28 13:40:00,42.4,31.1,30.24,NW,312,4.0,4.0,64,0.00,,,0.00,Wunderground v.1.15,2013-03-28 17:40:00,
2013-03-28 13:45:00,43.3,32.7,30.25,West,281,3.0,4.0,66,0.00,,,0.00,Wunderground v.1.15,2013-03-28 17:45:00,
2013-03-28 13:50:00,43.2,31.1,30.24,WNW,285,4.0,4.0,62,0.00,,,0.00,Wunderground v.1.15,2013-03-28 17:50:00,
2013-03-28 14:00:00,43.5,31.7,30.24,West,266,5.0,5.0,63,0.00,,,0.00,Wunderground v.1.15,2013-03-28 18:00:00,
2013-03-28 14:10:00,43.9,33.3,30.24,WSW,245,5.0,5.0,66,0.00,,,0.00,Wunderground v.1.15,2013-03-28 18:10:00,
2013-03-28 14:15:00,43.9,31.7,30.24,WSW,239,4.0,7.0,62,0.00,,,0.00,Wunderground v.1.15,2013-03-28 18:15:00,
2013-03-28 14:20:00,43.9,31.3,30.23,NE,34,4.0,8.0,61,0.00,,,0.00,Wunderground v.1.15,2013-03-28 18:20:00,
2013-03-28 14:25:00,44.0,31.4,30.23,NNE,13,4.0,8.0,61,0.00,,,0.00,Wunderground v.1.15,2013-03-28 18:25:00,
2013-03-28 14:35:00,44.7,31.2,30.23,WNW,301,4.0,6.0,59,0.00,,,0.00,Wunderground v.1.15,2013-03-28 18:35:00,
2013-03-28 14:40:00,44.3,31.3,30.23,WNW,290,5.0,5.0,60,0.00,,,0.00,Wunderground v.1.15,2013-03-28 18:40:00,
2013-03-28 14:45:00,44.0,31.0,30.23,NE,40,5.0,5.0,60,0.00,,,0.00,Wunderground v.1.15,2013-03-28 18:45:00,
2013-03-28 14:50:00,44.0,31.4,30.23,WSW,241,4.0,4.0,61,0.00,,,0.00,Wunderground v.1.15,2013-03-28 18:50:00,
2013-03-28 14:55:00,44.2,31.6,30.23,WNW,298,3.0,4.0,61,0.00,,,0.00,Wunderground v.1.15,2013-03-28 18:55:00,
2013-03-28 15:00:00,44.3,31.3,30.23,NNE,22,3.0,3.0,60,0.00,,,0.00,Wunderground v.1.15,2013-03-28 19:00:00,
2013-03-28 15:10:00,44.6,32.0,30.23,NNE,12,3.0,4.0,61,0.00,,,0.00,Wunderground v.1.15,2013-03-28 19:10:00,
2013-03-28 15:20:00,44.8,31.3,30.23,West,277,3.0,4.0,59,0.00,,,0.00,Wunderground v.1.15,2013-03-28 19:20:00,
2013-03-28 15:25:00,44.6,31.1,30.23,WSW,250,3.0,5.0,59,0.00,,,0.00,Wunderground v.1.15,2013-03-28 19:25:00,
2013-03-28 15:30:00,44.4,31.0,30.23,NW,319,4.0,4.0,59,0.00,,,0.00,Wunderground v.1.15,2013-03-28 19:30:00,
2013-03-28 15:35:00,44.3,30.9,30.22,WNW,286,5.0,5.0,59,0.00,,,0.00,Wunderground v.1.15,2013-03-28 19:35:00,
2013-03-28 15:40:00,44.1,31.1,30.22,SSE,151,4.0,4.0,60,0.00,,,0.00,Wunderground v.1.15,2013-03-28 19:40:00,
2013-03-28 15:45:00,44.3,31.7,30.22,WSW,239,3.0,4.0,61,0.00,,,0.00,Wunderground v.1.15,2013-03-28 19:45:00,
2013-03-28 15:50:00,44.4,31.4,30.22,West,271,3.0,4.0,60,0.00,,,0.00,Wunderground v.1.15,2013-03-28 19:50:00,
2013-03-28 15:55:00,44.7,30.8,30.22,NNW,330,4.0,4.0,58,0.00,,,0.00,Wunderground v.1.15,2013-03-28 19:55:00,
2013-03-28 16:00:00,44.7,31.2,30.22,West,259,3.0,3.0,59,0.00,,,0.00,Wunderground v.1.15,2013-03-28 20:00:00,
2013-03-28 16:10:00,44.5,30.6,30.22,West,281,3.0,4.0,58,0.00,,,0.00,Wunderground v.1.15,2013-03-28 20:10:00,
2013-03-28 16:20:00,44.8,31.3,30.22,SE,146,2.0,3.0,59,0.00,,,0.00,Wunderground v.1.15,2013-03-28 20:20:00,
2013-03-28 16:25:00,45.1,32.0,30.22,NNE,25,2.0,3.0,60,0.00,,,0.00,Wunderground v.1.15,2013-03-28 20:25:00,
2013-03-28 16:35:00,45.5,32.0,30.22,West,277,2.0,2.0,59,0.00,,,0.00,Wunderground v.1.15,2013-03-28 20:35:00,
2013-03-28 16:40:00,45.2,31.3,30.23,North,11,3.0,5.0,58,0.00,,,0.00,Wunderground v.1.15,2013-03-28 20:40:00,
2013-03-28 16:45:00,44.8,31.3,30.23,SW,216,3.0,5.0,59,0.00,,,0.00,Wunderground v.1.15,2013-03-28 20:45:00,
2013-03-28 16:50:00,44.6,31.1,30.23,NW,316,4.0,4.0,59,0.00,,,0.00,Wunderground v.1.15,2013-03-28 20:50:00,
2013-03-28 16:55:00,44.5,30.6,30.23,WSW,255,3.0,4.0,58,0.00,,,0.00,Wunderground v.1.15,2013-03-28 20:55:00,
2013-03-28 17:00:00,44.5,31.5,30.23,NNE,18,3.0,3.0,60,0.00,,,0.00,Wunderground v.1.15,2013-03-28 21:00:00,
2013-03-28 17:10:00,44.5,30.6,30.23,WNW,285,4.0,4.0,58,0.00,,,0.00,Wunderground v.1.15,2013-03-28 21:10:00,
2013-03-28 17:15:00,44.6,30.7,30.23,WSW,250,3.0,4.0,58,0.00,,,0.00,Wunderground v.1.15,2013-03-28 21:15:00,
2013-03-28 17:20:00,44.8,31.8,30.23,WNW,293,2.0,3.0,60,0.00,,,0.00,Wunderground v.1.15,2013-03-28 21:20:00,
2013-03-28 17:25:00,44.7,30.8,30.23,West,273,3.0,5.0,58,0.00,,,0.00,Wunderground v.1.15,2013-03-28 21:25:00,
2013-03-28 17:30:00,44.8,30.9,30.23,NNW,345,4.0,4.0,58,0.00,,,0.00,Wunderground v.1.15,2013-03-28 21:30:00,
2013-03-28 17:35:00,45.0,31.5,30.23,North,349,3.0,4.0,59,0.00,,,0.00,Wunderground v.1.15,2013-03-28 21:35:00,
2013-03-28 17:40:00,44.9,31.0,30.23,West,274,3.0,3.0,58,0.00,,,0.00,Wunderground v.1.15,2013-03-28 21:40:00,
2013-03-28 17:50:00,44.7,31.2,30.23,WNW,288,4.0,4.0,59,0.00,,,0.00,Wunderground v.1.15,2013-03-28 21:50:00,
2013-03-28 17:55:00,44.7,30.8,30.23,NNW,335,4.0,4.0,58,0.00,,,0.00,Wunderground v.1.15,2013-03-28 21:55:00,
2013-03-28 18:00:00,44.6,31.1,30.23,NNW,342,3.0,3.0,59,0.00,,,0.00,Wunderground v.1.15,2013-03-28 22:00:00,
2013-03-28 18:10:00,44.4,31.0,30.23,West,280,2.0,2.0,59,0.00,,,0.00,Wunderground v.1.15,2013-03-28 22:10:00,
2013-03-28 18:20:00,44.4,31.0,30.23,WNW,287,2.0,2.0,59,0.00,,,0.00,Wunderground v.1.15,2013-03-28 22:20:00,
2013-03-28 18:25:00,44.3,30.9,30.23,West,269,3.0,3.0,59,0.00,,,0.00,Wunderground v.1.15,2013-03-28 22:25:00,
2013-03-28 18:30:00,44.3,30.4,30.24,SW,232,2.0,3.0,58,0.00,,,0.00,Wunderground v.1.15,2013-03-28 22:30:00,
2013-03-28 18:35:00,44.3,30.9,30.23,SW,224,2.0,3.0,59,0.00,,,0.00,Wunderground v.1.15,2013-03-28 22:35:00,
2013-03-28 18:40:00,44.3,30.9,30.24,NW,324,2.0,3.0,59,0.00,,,0.00,Wunderground v.1.15,2013-03-28 22:40:00,
2013-03-28 18:45:00,44.2,30.3,30.24,WSW,248,2.0,3.0,58,0.00,,,0.00,Wunderground v.1.15,2013-03-28 22:45:00,
2013-03-28 18:50:00,44.1,30.3,30.24,SSE,148,2.0,2.0,58,0.00,,,0.00,Wunderground v.1.15,2013-03-28 22:50:00,
2013-03-28 19:00:00,44.0,30.2,30.24,NW,312,1.0,1.0,58,0.00,,,0.00,Wunderground v.1.15,2013-03-28 23:00:00,
2013-03-28 19:10:00,43.8,30.0,30.24,East,82,1.0,1.0,58,0.00,,,0.00,Wunderground v.1.15,2013-03-28 23:10:00,
2013-03-28 19:15:00,43.7,29.9,30.24,ESE,116,1.0,1.0,58,0.00,,,0.00,Wunderground v.1.15,2013-03-28 23:15:00,
2013-03-28 19:20:00,43.6,29.8,30.24,WNW,287,1.0,2.0,58,0.00,,,0.00,Wunderground v.1.15,2013-03-28 23:20:00,
2013-03-28 19:25:00,43.5,29.7,30.24,NNW,333,1.0,2.0,58,0.00,,,0.00,Wunderground v.1.15,2013-03-28 23:25:00,
2013-03-28 19:35:00,43.2,29.8,30.24,North,353,1.0,2.0,59,0.00,,,0.00,Wunderground v.1.15,2013-03-28 23:35:00,
2013-03-28 19:40:00,43.1,29.7,30.25,North,4,0.0,0.0,59,0.00,,,0.00,Wunderground v.1.15,2013-03-28 23:40:00,
2013-03-28 19:45:00,42.9,30.0,30.25,SSE,153,0.0,1.0,60,0.00,,,0.00,Wunderground v.1.15,2013-03-28 23:45:00,
2013-03-28 19:50:00,42.7,30.2,30.25,SSE,153,0.0,0.0,61,0.00,,,0.00,Wunderground v.1.15,2013-03-28 23:50:00,
2013-03-28 19:55:00,42.4,29.9,30.25,SSE,154,0.0,0.0,61,0.00,,,0.00,Wunderground v.1.15,2013-03-28 23:55:00,
2013-03-28 20:00:00,42.1,30.4,30.25,SSE,154,0.0,0.0,63,0.00,,,0.00,Wunderground v.1.15,2013-03-29 00:00:00,
2013-03-28 20:10:00,41.4,30.9,30.25,SSE,153,0.0,0.0,66,0.00,,,0.00,Wunderground v.1.15,2013-03-29 00:10:00,
2013-03-28 20:15:00,41.0,30.9,30.25,SSE,153,0.0,0.0,67,0.00,,,0.00,Wunderground v.1.15,2013-03-29 00:15:00,
2013-03-28 20:20:00,40.6,31.2,30.25,SSE,153,0.0,0.0,69,0.00,,,0.00,Wunderground v.1.15,2013-03-29 00:20:00,
2013-03-28 20:25:00,40.0,31.0,30.25,SSE,154,0.0,0.0,70,0.00,,,0.00,Wunderground v.1.15,2013-03-29 00:25:00,
2013-03-28 20:30:00,39.5,30.9,30.25,SSE,153,0.0,0.0,71,0.00,,,0.00,Wunderground v.1.15,2013-03-29 00:30:00,
2013-03-28 20:35:00,39.1,30.8,30.25,SSE,154,0.0,0.0,72,0.00,,,0.00,Wunderground v.1.15,2013-03-29 00:35:00,
2013-03-28 20:40:00,38.8,30.5,30.25,SSE,154,0.0,0.0,72,0.00,,,0.00,Wunderground v.1.15,2013-03-29 00:40:00,
2013-03-28 20:50:00,38.3,30.4,30.25,SSE,153,0.0,0.0,73,0.00,,,0.00,Wunderground v.1.15,2013-03-29 00:50:00,
2013-03-28 20:55:00,38.1,30.2,30.25,SSE,153,0.0,0.0,73,0.00,,,0.00,Wunderground v.1.15,2013-03-29 00:55:00,
2013-03-28 21:00:00,37.8,30.3,30.25,SSE,154,0.0,0.0,74,0.00,,,0.00,Wunderground v.1.15,2013-03-29 01:00:00,
2013-03-28 21:10:00,37.1,29.9,30.25,SSE,154,0.0,0.0,75,0.00,,,0.00,Wunderground v.1.15,2013-03-29 01:10:00,
2013-03-28 21:15:00,36.8,29.6,30.25,SSE,153,0.0,0.0,75,0.00,,,0.00,Wunderground v.1.15,2013-03-29 01:15:00,
2013-03-28 21:25:00,36.3,29.5,30.25,SSE,154,0.0,0.0,76,0.00,,,0.00,Wunderground v.1.15,2013-03-29 01:25:00,
2013-03-28 21:30:00,36.0,29.5,30.25,SSE,154,0.0,1.0,77,0.00,,,0.00,Wunderground v.1.15,2013-03-29 01:30:00,
2013-03-28 21:35:00,35.6,29.1,30.26,SSE,153,0.0,1.0,77,0.00,,,0.00,Wunderground v.1.15,2013-03-29 01:35:00,
2013-03-28 21:40:00,35.4,29.2,30.25,SSE,153,0.0,0.0,78,0.00,,,0.00,Wunderground v.1.15,2013-03-29 01:40:00,
2013-03-28 21:45:00,35.2,29.3,30.26,SSE,154,0.0,0.0,79,0.00,,,0.00,Wunderground v.1.15,2013-03-29 01:45:00,
2013-03-28 21:50:00,35.0,29.1,30.26,SSE,154,0.0,0.0,79,0.00,,,0.00,Wunderground v.1.15,2013-03-29 01:50:00,
2013-03-28 21:55:00,34.8,29.0,30.26,SSE,153,0.0,0.0,79,0.00,,,0.00,Wunderground v.1.15,2013-03-29 01:55:00,
2013-03-28 22:05:00,34.4,28.6,30.26,SSE,153,0.0,0.0,79,0.00,,,0.00,Wunderground v.1.15,2013-03-29 02:05:00,
2013-03-28 22:10:00,34.1,28.9,30.27,SSE,153,0.0,0.0,81,0.00,,,0.00,Wunderground v.1.15,2013-03-29 02:10:00,
2013-03-28 22:15:00,33.9,28.7,30.26,SSE,153,0.0,0.0,81,0.00,,,0.00,Wunderground v.1.15,2013-03-29 02:15:00,
2013-03-28 22:20:00,33.5,28.3,30.26,SSE,153,0.0,1.0,81,0.00,,,0.00,Wunderground v.1.15,2013-03-29 02:20:00,
2013-03-28 22:25:00,33.4,28.5,30.26,SSE,153,0.0,1.0,82,0.00,,,0.00,Wunderground v.1.15,2013-03-29 02:25:00,
2013-03-28 22:30:00,33.3,28.1,30.26,SSE,154,0.0,0.0,81,0.00,,,0.00,Wunderground v.1.15,2013-03-29 02:30:00,
2013-03-28 22:35:00,32.9,27.7,30.26,SSE,153,0.0,0.0,81,0.00,,,0.00,Wunderground v.1.15,2013-03-29 02:35:00,
2013-03-28 22:45:00,32.3,27.4,30.26,SSE,153,0.0,0.0,82,0.00,,,0.00,Wunderground v.1.15,2013-03-29 02:45:00,
2013-03-28 22:50:00,32.1,27.5,30.26,SSE,153,0.0,0.0,83,0.00,,,0.00,Wunderground v.1.15,2013-03-29 02:50:00,
2013-03-28 23:00:00,31.7,27.1,30.27,SSE,153,0.0,0.0,83,0.00,,,0.00,Wunderground v.1.15,2013-03-29 03:00:00,
2013-03-28 23:10:00,31.4,27.1,30.27,SSE,153,0.0,0.0,84,0.00,,,0.00,Wunderground v.1.15,2013-03-29 03:10:00,
2013-03-28 23:20:00,31.3,27.0,30.27,SSE,153,0.0,0.0,84,0.00,,,0.00,Wunderground v.1.15,2013-03-29 03:20:00,
2013-03-28 23:25:00,31.0,27.0,30.27,SSE,154,0.0,0.0,85,0.00,,,0.00,Wunderground v.1.15,2013-03-29 03:25:00,
2013-03-28 23:35:00,30.8,27.1,30.27,SSE,154,0.0,0.0,86,0.00,,,0.00,Wunderground v.1.15,2013-03-29 03:35:00,
2013-03-28 23:40:00,30.7,27.0,30.27,SSE,153,0.0,0.0,86,0.00,,,0.00,Wunderground v.1.15,2013-03-29 03:40:00,
2013-03-28 23:45:00,30.6,26.9,30.27,SSE,153,0.0,0.0,86,0.00,,,0.00,Wunderground v.1.15,2013-03-29 03:45:00,
2013-03-28 23:50:00,30.4,26.7,30.27,SSE,153,0.0,0.0,86,0.00,,,0.00,Wunderground v.1.15,2013-03-29 03:50:00,
2013-03-28 23:55:00,30.2,26.8,30.27,SSE,153,0.0,0.0,87,0.00,,,0.00,Wunderground v.1.15,2013-03-29 03:55:00,